sat.trackr.live / text

‹ back to catalog

APRIZESAT 4

NORAD 35684 · 2009-041D

PAYLOAD ACTIVE UNKNOWN

§ Identity

Operator
Country
US
Launch date
2009-07-29
Launch site
TYMSC
Launch vehicle
Mass (kg)
RCS (m²)
0.11

Purposes: tech_demo

External: N2YO · Heavens-Above · Gunter

§ Orbital elements

Epoch: 2026-09-19T22:15:52.391808Z

Period
97.04 min
Inclination
98.1340°
Eccentricity
0.0043494
Mean motion
14.83994133 rev/d
Perigee alt
586.3 km
Apogee alt
647.2 km
Semi-major
6,994.9 km
B*
5.3568e-5
RAAN
340.1032°
Arg perigee
16.0454°
Mean anomaly
344.2126°
Rev number
92,541

§ Raw data

APRIZESAT 41 35684U 09041D   26262.92768972  .00000394  00000+0  53568-4 0  99942 35684  98.1340 340.1032 0043494  16.0454 344.2126 14.83994133925418

JSON: /api/v1/satellites/35684 · /tle

For live sub-satellite position, see the globe view (requires WebGL).

§ Visibility from observer

Set your observer location to see the next 7 days of passes ≥ 10°. The values pass through the URL so the page stays shareable.

No JS? Fill the form by hand. The geolocation button needs JavaScript.